Погода в Лимане

Погода в Лимане : погода сейчас, прогноз погоды и архив. Всё, что Вы хотите узнать о погоде в Лимане!

Хотите узнать прогноз погоды в Лимане? Тогда Вам сюда: Погода в Лимане

Поиск расширенной информации на нашем сайте:

Другие новости

Новости СМИ2

Главная страница сайта

Новости сайта

03.07.2017

Напоминаем, что на нашем специализированном сайте Метеоцентр.Азия вы можете получить высокодетализированные автоматические прогнозы погоды по пунктам России, СНГ и мира в авиационном формате (включающие направление и скорость ветра, видимость, явления погоды, количество и форму облачности, нижнюю и верхнюю границу облачности).


Погода в Лимане - сегодня

Время (UTC), дата Ветер
(°,м/с) 
Видим.   Явления Облачность Т
(°С)
Тd
(°С)
f(%) Тe
(°С)
Pmin
(гПа)
dP
(гПа)
Po
(мм)
O2
(г/м3)
Тmin Tmax R s Состояние
почвы
12 20.10.17 280 (З) 20000 м    10/5 600 м верхняя 
[Cu Sc|Cs]
+17.7 +10 61 +20  1017.4  -0.5  764  287           
15 20.10.17 300 (СЗ) 20000 м    10/0 средняя, верхняя 
[Ac trans|Cs]
+13.5 +9.7 78 +14  1017.9  0.6  765  292    +18.6       
18 20.10.17 250 (З) 20000 м    8/0 верхняя 
[Cs]
+10.6 +9 90 +12  1018.6  0.7  765  295           
21 20.10.17 300 (СЗ) 4000 м  дымка  9/9 300 м 
[St]
+9.4 +8.6 95 +10  1018.2  -0.4  765  297           
00 21.10.17 290 (З) 2000 м  дымка  10/10 300 м 
[St]
+10.3 +9.6 95 +11  1017.7  -0.5  765  295           
03 21.10.17 тихо ()   4000 м  дымка  10/10 600 м 
[Sc]
+11.7 +10.6 93 +13  1017.5  -0.2  765  293  +9.2         
06 21.10.17 тихо ()   4000 м  дымка  10/10 300 м 
[St]
+12.7 +11.3 91 +15  1017.8  0.3  765  292           
09 21.10.17 тихо ()   20000 м    10/10 600 м 
[Sc]
+13.6 +10.7 83 +15  1017.2  -0.7  764  291           
12 21.10.17 220 (ЮЗ) 20000 м    10/10 600 м 
[Sc]
+14.2 +10.3 77 +16  1016  -1.1  763  291           
15 21.10.17 150 (ЮВ) 20000 м    6/0 средняя, верхняя 
[Ac trans|Ci fib]
+11.7 +9.8 88 +14  1015.3  -0.7  763  293    +14.6       
18 21.10.17 тихо ()   4000 м  дымка  10/10 600 м 
[Sc]
+9.9 +8.9 93 +10  1015.5  0.2  763  295           
21 21.10.17 170 (Ю) 4000 м  дымка  10/10 600 м 
[Sc]
+10.8 +9.6 92 +12  1014.3  -1.2  762  294           
00 22.10.17 180 (Ю) 4000 м  дымка  10/10 300 м 
[St]
+11.3 +10.1 92 +13  1013.1  -1.3  761  293           
03 22.10.17 тихо ()   4000 м  дымка  10/10 300 м 
[St]
+10.4 +9.4 94 +11  1012.7  -0.3  761  294  +9.4         
06 22.10.17 тихо ()   20000 м    9/9 300 м 
[St]
+11.7 +9.4 86 +12  1012.5  -0.2  761  292           
09 22.10.17 210 (ЮЗ) 20000 м    6/3 600 м верхняя 
[Cu Sc|Ci fib]
+16.8 +9.7 63 +19  1010.7  -1.9  759  287           
12 22.10.17 210 (ЮЗ) 20000 м    10/6 600 м верхняя 
[Sc|Cs]
+17.3 +9.3 59 +18  1009.3  -1.4  758  286           
15 22.10.17 230 (ЮЗ) 20000 м    10/0 верхняя 
[Cs]
+13.9 +10.7 81 +16  1009.5  0.3  759  289    +17.8       
18 22.10.17 270 (З) 10 км  слаб. дождь  10/0 средняя 
[As op]
+12.8 +9.2 79 +13  1009.4  -0.1  758  290           
21 22.10.17 340 (С) 4000 м  слаб. дождь  10/10 300 м 
[Frnb|Ns]
+9.3 +8.3 93 +9  1010.5  1.1  759  294           
00 23.10.17 330 (СЗ) 4000 м  дымка{дождь}  10/0 средняя 
[As op]
+5.5 +4.6 94 +4  1013.3  2.8  761  300           
03 23.10.17 340 (С) 20000 м    10/10 600 м 
[Sc]
+4.1 +2.2 87 +3  1016.6  3.3  764  303  +3.9      влажная 
06 23.10.17 340 (С) 20000 м    10/10 600 м 
[Sc diur, vesp]
+4.2 +1.7 84 +3  1020.3  3.8  767  304           
09 23.10.17 360 (С) 20000 м    10/10 600 м 
[Sc]
+5.5 +1 73 +5  1022.2  1.9  768  303           
12 23.10.17 350 (С) 20000 м    6/4 600 м средняя 
[Sc|Ac trans]
+6.6 +1.1 68 +8  1023.2  0.9  769  302           
Время (UTC), дата Ветер
(°,м/с) 
Видим.   Явления Облачность Т
(°С)
Тd
(°С)
f(%) Тe
(°С)
Pmin
(гПа)
dP
(гПа)
Po
(мм)
O2
(г/м3)
Тmin Tmax R s Состояние
почвы

Для получения пояснительной информации подведите курсор к названию столбца.

ПОГОДА в Лимане - архив

Всё, что Вы хотите узнать о погоде в Лимане - удобно и подробно!

Выберите нужную дату (начиная с 1 января 2015* года) и нажмите кнопку "Найти".
Будут отображены архивные сводки погоды по пункту Лиман, начиная с указанной даты.


Отображать данные в формате CSV (для использования в таблицах Excel)


Внимание! Наш архив погоды предназначен исключительно для личного некоммерческого использования в познавательных целях. Если Вам необходимы официальные справки о состоянии погоды (для производственных, юридических, коммерческих и т.п. целей), обращайтесь в органы Росгидромета.

*Примечание: данная дата относится к архиву по метеостанциям СССР (Россия, СНГ, Балтия).
Архив по метеостанциям Зарубежной Европы и Азии (кроме Китая) хранится 10 дней, по другим регионам земного шара (Китай, Африка, Америка, Австралия, Океания) - 1 день.

Лиман - район местоположения метеостанции


Название, широта, долгота, высота метеостанции:
Лиман 45.8°ш. 47.2°д. -18 м над ур. моря [Российская Федерация]

Дополнительная информация

В oтличие oт бoльшинства пoгoдных сайтoв мы публикуем пoдрoбную метеoинфoрмацию в детальнoм прoфессиoнальнoм фoрмате.

Характеристики температуры и влажнoсти вoздуха измеряются на высoте 2 м в тени вдали oт зданий и деревьев.
Скoрoсть ветра измеряется на высoте 10 м (на урoвне рoста челoвека скoрoсть ветра ниже в 1.5-2 раза). Если метеoстанция нахoдится в гoрoде или в лесу, тo скoрoсть ветра занижена на 2-4 м/с пo сравнению с oткрытым местoм. Скoрoсть ветра над акватoриями крупных рек и oзёр, а также на вершинах хoлмoв на 2-5 м/с выше, чем в oбычных услoвиях.
Атмoсфернoе давление в разных тoчках местнoсти мoжет значительнo oтличаться oт давления на метеoстанции, в зависимoсти oт услoвий рельефа (при пoдъёме на 10 м давление пoнижается примернo на 1 мм рт.ст.).